Home > Weather > Allentown > Past weeks

Flag for U.S.A. Weather for the Past 2 Weeks in Allentown, Pennsylvania, U.S.A.

Now
2 °F

Clear.


Feels Like: -13 °F
Forecast: 1 / 16 °F
Wind: 9 mph from Northwest

Location: Lehigh Valley International Airport

Current Time: Feb 14, 2016 at 7:40:51 AM

Latest Report: Feb 14, 2016 at 6:51 AM


Visibility: 10 mi

Pressure: 30.51 "Hg

Humidity: 54%

Dew point: -11 °F

Location of AllentownLocation

Historic Weather in Allentown — Graph

°F

Allentown Temperature Yesterday

Maximum temperature yesterday: 20 °F (at 12:51 AM)
Minimum temperature yesterday: 9 °F (at 7:51 PM)
Average temperature yesterday: 15 °F

High & Low Weather Summary for the Past Weeks

 TemperatureHumidityPressure
High56 °F (Feb 3, 5:51 PM)97% (Feb 3, 9:51 PM)30.47 "Hg (Feb 3, 9:51 PM)
Low3 °F (Feb 14, 5:51 AM)30% (Feb 7, 1:51 PM)29.55 "Hg (Feb 9, 1:51 PM)
Average32 °F63%30.01 "Hg
* Reported Jan 30 5:51 AM — Feb 14 5:51 AM, Allentown, Weather by CustomWeather, © 2016

Note: Actual official high and low records may vary slightly from our data, if they occured in-between our weather recording intervals... More about our weather records

Advertising

Allentown Weather History for the Previous 24 Hours

 ConditionsComfort  
Time TempWeatherWind HumidityBarometerVisibility
5:51 AM
Sun, Feb 14
3 °FClear.10 mph51%30.47 "Hg10 mi
4:51 AM4 °FClear.20 mph49%30.42 "Hg10 mi
3:51 AM6 °FClear.14 mph43%30.41 "Hg10 mi
2:51 AM6 °FPassing clouds.8 mphN/A30.38 "Hg10 mi
1:51 AM7 °FPassing clouds.10 mph47%30.37 "Hg10 mi
12:51 AM8 °FOvercast.10 mph47%30.36 "Hg10 mi
11:51 PM
Sat, Feb 13
9 °FOvercast.21 mphN/A30.34 "Hg10 mi
10:51 PM9 °FOvercast.15 mph43%30.33 "Hg10 mi
9:51 PM10 °FPassing clouds.14 mph41%30.33 "Hg10 mi
8:51 PM10 °FPassing clouds.14 mphN/A30.33 "Hg10 mi
7:51 PM9 °FClear.12 mphN/A30.32 "Hg10 mi
6:51 PM10 °FPassing clouds.20 mph41%30.30 "Hg10 mi
5:51 PM11 °FOvercast.15 mph42%30.28 "Hg10 mi
4:51 PM12 °FOvercast.17 mph34%30.24 "Hg10 mi
3:51 PM13 °FPartly sunny.22 mph38%30.22 "Hg10 mi
2:51 PM15 °FOvercast.16 mph40%30.19 "Hg10 mi
1:51 PM17 °FOvercast.21 mph42%30.15 "Hg10 mi
12:51 PM17 °FOvercast.15 mph39%30.13 "Hg10 mi
11:51 AM18 °FOvercast.18 mph35%30.13 "Hg10 mi
10:51 AM17 °FMostly cloudy.23 mph45%30.12 "Hg10 mi
9:51 AM18 °FPartly sunny.21 mph39%30.10 "Hg10 mi
8:51 AM18 °FSunny.17 mph37%30.08 "Hg10 mi
7:51 AM18 °FSunny.16 mph41%30.05 "Hg10 mi
Weather by CustomWeather, © 2016

See weather overviewHow to use our weather pages